DW4379 Weather Reports


Display with metric or nautical units.
time (UTC)temp
F
wind
direction
speed
MPH
gust
MPH
rain 1hr
in
rain 24hr
in
rain mn
in
humidity
%
barometer
mb
20260831172504 92 266 0.0 3.0 0.00 0.00 0.00 57 1017.0
20260831172003 92 244 0.0 5.0 0.00 0.00 0.00 59 1017.1
20260831171503 92 250 1.0 5.0 0.00 0.00 0.00 60 1017.2
20260831171003 92 223 1.0 3.0 0.00 0.00 0.00 59 1017.1
20260831170504 92 212 1.0 3.0 0.00 0.00 0.00 59 1017.2
20260831170004 92 253 1.0 4.0 0.00 0.00 0.00 59 1017.2
20260831165503 91 253 1.0 4.0 0.00 0.00 0.00 59 1017.3
20260831165003 92 262 1.0 4.0 0.00 0.00 0.00 59 1017.4
20260831164718 92 250 1.0 4.0 0.00 0.00 0.00 60 1017.3
20260831164004 92 232 0.0 3.0 0.00 0.00 0.00 63 1017.3
20260831163503 92 229 0.0 4.0 0.00 0.00 0.00 63 1017.4
20260831163004 91 197 1.0 4.0 0.00 0.00 0.00 63 1017.3
20260831162504 91 150 1.0 4.0 0.00 0.00 0.00 64 1017.3
20260831162004 91 195 0.0 3.0 0.00 0.00 0.00 65 1017.3
20260831161503 90 198 0.0 3.0 0.00 0.00 0.00 67 1017.3
20260831161008 90 189 1.0 5.0 0.00 0.00 0.00 68 1017.3
20260831160717 89 183 1.0 5.0 0.00 0.00 0.00 69 1017.3
20260831160003 89 150 0.0 3.0 0.00 0.00 0.00 69 1017.2
20260831155717 89 143 0.0 4.0 0.00 0.00 0.00 70 1017.3
20260831155008 88 123 1.0 4.0 0.00 0.00 0.00 72 1017.4
20260831154717 88 125 1.0 3.0 0.00 0.00 0.00 73 1017.4
20260831154003 87 159 1.0 6.0 0.00 0.00 0.00 74 1017.3
20260831153503 87 181 1.0 3.0 0.00 0.00 0.00 75 1017.3
20260831153218 86 199 1.0 3.0 0.00 0.00 0.00 74 1017.3
20260831152504 86 152 1.0 4.0 0.00 0.00 0.00 76 1017.4
20260831152218 86 138 1.0 4.0 0.00 0.00 0.00 75 1017.3
20260831151504 85 119 0.0 4.0 0.00 0.00 0.00 77 1017.3
20260831151003 85 168 0.0 3.0 0.00 0.00 0.00 77 1017.3
20260831150503 84 216 0.0 2.0 0.00 0.00 0.00 77 1017.3
20260831150003 84 150 0.0 3.0 0.00 0.00 0.00 78 1017.2
20260831145504 84 143 0.0 3.0 0.00 0.00 0.00 79 1017.2
20260831145004 83 121 0.0 3.0 0.00 0.00 0.00 80 1017.3
20260831144503 82 114 1.0 3.0 0.00 0.00 0.00 81 1017.2
20260831144004 82 119 0.0 3.0 0.00 0.00 0.00 82 1017.2
20260831143504 81 114 0.0 3.0 0.00 0.00 0.00 83 1017.2
20260831143003 81 118 0.0 3.0 0.00 0.00 0.00 83 1017.2
20260831142504 80 192 0.0 1.0 0.00 0.00 0.00 84 1017.2
20260831142217 80 191 0.0 3.0 0.00 0.00 0.00 84 1017.2
20260831141503 80 189 0.0 3.0 0.00 0.00 0.00 84 1017.2
20260831141003 79 143 0.0 1.0 0.00 0.00 0.00 85 1017.1
20260831140504 79 143 0.0 1.0 0.00 0.00 0.00 84 1017.2
20260831140004 79 0 0.0 0.0 0.00 0.00 0.00 85 1017.1
20260831135504 79 0 0.0 0.0 0.00 0.00 0.00 85 1017.2
20260831135004 79 156 0.0 1.0 0.00 0.00 0.00 85 1017.2
20260831134503 78 159 0.0 1.0 0.00 0.00 0.00 85 1017.2
20260831134003 78 169 0.0 2.0 0.00 0.00 0.00 85 1017.1
20260831133503 78 178 0.0 2.0 0.00 0.00 0.00 86 1017.1
20260831133217 78 184 0.0 2.0 0.00 0.00 0.00 86 1017.1
20260831132503 78 182 0.0 1.0 0.00 0.00 0.00 86 1017.1
20260831132003 77 0 0.0 0.0 0.00 0.00 0.00 86 1017.1
20260831131718 77 161 0.0 1.0 0.00 0.00 0.00 86 1017.0
20260831131004 77 132 0.0 1.0 0.00 0.00 0.00 86 1016.9
20260831130504 77 113 0.0 1.0 0.00 0.00 0.00 86 1016.9
20260831130217 77 113 0.0 1.0 0.00 0.00 0.00 86 1016.9
20260831125504 77 128 0.0 3.0 0.00 0.00 0.00 87 1016.8
20260831125004 76 0 0.0 0.0 0.00 0.00 0.00 87 1016.8
20260831124504 76 104 0.0 2.0 0.00 0.00 0.00 87 1016.8
20260831124004 76 105 0.0 2.0 0.00 0.00 0.00 87 1016.7
20260831123503 75 116 0.0 1.0 0.00 0.00 0.00 88 1016.6
20260831123217 75 92 0.0 1.0 0.00 0.00 0.00 89 1016.6
20260831122503 73 89 0.0 1.0 0.00 0.00 0.00 90 1016.6
20260831122004 73 93 0.0 1.0 0.00 0.00 0.00 90 1016.6
20260831121503 72 93 0.0 1.0 0.00 0.00 0.00 90 1016.6
20260831121003 72 93 0.0 1.0 0.00 0.00 0.00 91 1016.5
20260831120503 72 91 0.0 1.0 0.00 0.00 0.00 90 1016.4
20260831120004 71 91 0.0 1.0 0.00 0.00 0.00 90 1016.4
20260831115503 71 91 0.0 1.0 0.00 0.00 0.00 90 1016.3
20260831115004 71 91 0.0 1.0 0.00 0.00 0.00 90 1016.3
20260831114504 71 0 0.0 0.0 0.00 0.00 0.00 90 1016.3
20260831114003 71 0 0.0 0.0 0.00 0.00 0.00 90 1016.3
20260831113503 71 91 0.0 1.0 0.00 0.00 0.00 90 1016.3
20260831113218 71 91 0.0 1.0 0.00 0.00 0.00 90 1016.2
20260831112717 71 92 0.0 1.0 0.00 0.00 0.00 89 1016.3
20260831112003 71 0 0.0 0.0 0.00 0.00 0.00 89 1016.2
20260831111503 72 92 0.0 1.0 0.00 0.00 0.00 88 1016.2
20260831111003 72 92 0.0 1.0 0.00 0.00 0.00 88 1016.1
20260831110504 72 94 0.0 1.0 0.00 0.00 0.00 88 1016.0
20260831110004 72 96 0.0 1.0 0.00 0.00 0.00 88 1016.1
20260831105504 72 97 0.0 1.0 0.00 0.00 0.00 88 1016.0
20260831105004 72 100 0.0 1.0 0.00 0.00 0.00 88 1015.9
20260831104503 72 101 0.0 1.0 0.00 0.00 0.00 88 1015.9
20260831104003 72 0 0.0 0.0 0.00 0.00 0.00 88 1015.8
20260831103504 72 0 0.0 0.0 0.00 0.00 0.00 88 1015.8
20260831103004 72 0 0.0 0.0 0.00 0.00 0.00 88 1015.8
20260831102504 72 0 0.0 0.0 0.00 0.00 0.00 88 1015.8
20260831102218 72 0 0.0 0.0 0.00 0.00 0.00 88 1015.8
20260831101717 72 0 0.0 0.0 0.00 0.00 0.00 88 1015.8
20260831101003 72 0 0.0 0.0 0.00 0.00 0.00 88 1015.7
20260831100504 72 110 0.0 1.0 0.00 0.00 0.00 88 1015.7
20260831100218 72 110 0.0 1.0 0.00 0.00 0.00 87 1015.7
20260831095503 72 0 0.0 0.0 0.00 0.00 0.00 87 1015.6
20260831095003 72 0 0.0 0.0 0.00 0.00 0.00 86 1015.6
20260831094503 72 0 0.0 0.0 0.00 0.00 0.00 86 1015.5
20260831094003 73 0 0.0 0.0 0.00 0.00 0.00 86 1015.6
20260831093504 73 0 0.0 0.0 0.00 0.00 0.00 86 1015.5
20260831093003 73 110 0.0 1.0 0.00 0.00 0.00 86 1015.4
20260831092504 72 110 0.0 1.0 0.00 0.00 0.00 86 1015.5
20260831092004 72 110 0.0 1.0 0.00 0.00 0.00 86 1015.6
20260831091719 72 110 0.0 1.0 0.00 0.00 0.00 86 1015.6
20260831091004 72 0 0.0 0.0 0.00 0.00 0.00 85 1015.7
20260831090504 73 110 0.0 1.0 0.00 0.00 0.00 85 1015.8
20260831090004 73 110 0.0 1.0 0.00 0.00 0.00 84 1015.7
20260831085503 74 0 0.0 0.0 0.00 0.00 0.00 83 1015.6
20260831085003 74 0 0.0 0.0 0.00 0.00 0.00 82 1015.7
20260831084503 74 0 0.0 0.0 0.00 0.00 0.00 82 1015.6
20260831084003 74 0 0.0 0.0 0.00 0.00 0.00 82 1015.5
20260831083504 74 0 0.0 0.0 0.00 0.00 0.00 82 1015.4
20260831083004 74 0 0.0 0.0 0.00 0.00 0.00 81 1015.3
20260831082503 74 0 0.0 0.0 0.00 0.00 0.00 81 1015.3
20260831082004 74 0 0.0 0.0 0.00 0.00 0.00 81 1015.3
20260831081718 74 0 0.0 0.0 0.00 0.00 0.00 81 1015.3
20260831081004 74 0 0.0 0.0 0.00 0.00 0.00 81 1015.3
20260831080503 75 0 0.0 0.0 0.00 0.00 0.00 80 1015.2
20260831080003 75 0 0.0 0.0 0.00 0.00 0.00 80 1015.3
20260831075504 75 0 0.0 0.0 0.00 0.00 0.00 79 1015.3
20260831075003 76 0 0.0 0.0 0.00 0.00 0.00 79 1015.2
20260831074504 76 117 0.0 1.0 0.00 0.00 0.00 78 1015.2
20260831074004 76 117 0.0 1.0 0.00 0.00 0.00 78 1015.2
20260831073503 76 0 0.0 0.0 0.00 0.00 0.00 78 1015.3
20260831073004 76 0 0.0 0.0 0.00 0.00 0.00 78 1015.3
20260831072504 76 0 0.0 0.0 0.00 0.00 0.00 78 1015.5
20260831072004 76 0 0.0 0.0 0.00 0.00 0.00 78 1015.5
20260831071504 76 0 0.0 0.0 0.00 0.00 0.00 78 1015.6
20260831071004 76 118 0.0 1.0 0.00 0.00 0.00 77 1015.7
20260831070503 76 102 0.0 2.0 0.00 0.00 0.00 77 1015.7
20260831070003 76 101 0.0 2.0 0.00 0.00 0.00 76 1015.7
20260831065503 76 0 0.0 0.0 0.00 0.00 0.00 76 1015.6
20260831065004 76 0 0.0 0.0 0.00 0.00 0.00 76 1015.7
20260831064503 76 0 0.0 0.0 0.00 0.00 0.00 76 1015.7
20260831064004 76 0 0.0 0.0 0.00 0.00 0.00 77 1015.7
20260831063504 77 0 0.0 0.0 0.00 0.00 0.00 77 1015.8
20260831063004 77 0 0.0 0.0 0.00 0.00 0.00 77 1015.9
20260831062718 77 0 0.0 0.0 0.00 0.00 0.00 76 1015.8
20260831062004 77 0 0.0 0.0 0.00 0.00 0.00 76 1015.9
20260831061503 77 178 0.0 1.0 0.00 0.00 0.00 76 1016.0
20260831061004 77 178 0.0 1.0 0.00 0.00 0.00 76 1016.0
20260831060503 77 0 0.0 0.0 0.00 0.00 0.00 76 1015.9
20260831060004 77 0 0.0 0.0 0.00 0.00 0.00 76 1016.0
20260831055504 78 0 0.0 0.0 0.00 0.00 0.00 76 1016.0
20260831055004 78 0 0.0 0.0 0.00 0.00 0.00 75 1015.9
20260831054503 78 115 0.0 2.0 0.00 0.00 0.00 75 1015.9
20260831054003 78 124 0.0 2.0 0.00 0.00 0.00 75 1015.9
20260831053717 78 159 0.0 1.0 0.00 0.00 0.00 75 1016.0
20260831053003 79 0 0.0 1.0 0.00 0.00 0.00 74 1016.1
20260831052717 79 0 0.0 0.0 0.00 0.00 0.00 73 1016.2
20260831052004 79 0 0.0 0.0 0.00 0.00 0.00 73 1016.3
20260831051503 79 0 0.0 0.0 0.00 0.00 0.00 72 1016.2
20260831051003 79 237 0.0 1.0 0.00 0.00 0.00 72 1016.1
20260831050503 80 237 0.0 1.0 0.00 0.00 0.00 72 1016.0
20260831050004 80 237 0.0 1.0 0.00 0.00 0.00 72 1015.8
20260831045503 80 237 0.0 1.0 0.00 0.00 0.00 72 1015.6
20260831045004 80 256 0.0 3.0 0.00 0.00 0.00 72 1015.6
20260831044717 80 203 0.0 3.0 0.00 0.00 0.00 71 1015.6
20260831044218 80 108 0.0 2.0 0.00 0.00 0.00 72 1015.4
20260831043717 80 0 0.0 0.0 0.00 0.00 0.00 71 1015.6
20260831043003 80 0 0.0 0.0 0.00 0.00 0.00 71 1015.7
20260831042504 80 0 0.0 0.0 0.00 0.00 0.00 71 1015.6
20260831042004 80 0 0.0 0.0 0.00 0.00 0.00 71 1015.7
20260831041503 80 0 0.0 0.0 0.00 0.00 0.00 71 1015.7
20260831040503 80 0 0.0 0.0 0.00 0.00 0.00 71 1015.7
20260831040009 80 0 0.0 0.0 0.00 0.00 0.00 72 1015.6
20260831035503 80 0 0.0 0.0 0.00 0.00 0.00 72 1015.6
20260831035003 80 0 0.0 0.0 0.00 0.00 0.00 72 1015.6
20260831034504 80 0 0.0 0.0 0.00 0.00 0.00 72 1015.5
20260831034003 80 0 0.0 0.0 0.00 0.00 0.00 72 1015.4
20260831033504 79 0 0.0 0.0 0.00 0.00 0.00 72 1015.6
20260831033004 79 0 0.0 0.0 0.00 0.00 0.00 74 1015.8
20260831032503 79 0 0.0 0.0 0.00 0.00 0.00 75 1015.9
20260831032004 78 0 0.0 0.0 0.00 0.00 0.00 76 1015.7
20260831031718 78 0 0.0 0.0 0.00 0.00 0.00 76 1015.7
20260831031003 78 0 0.0 0.0 0.00 0.00 0.00 79 1015.7
20260831030718 78 103 0.0 1.0 0.00 0.00 0.00 80 1015.7
20260831030003 78 103 0.0 1.0 0.00 0.00 0.00 80 1015.9
20260831025503 78 0 0.0 0.0 0.00 0.00 0.00 80 1015.9
20260831025003 78 0 0.0 0.0 0.00 0.00 0.00 79 1015.9
20260831024503 78 0 0.0 0.0 0.00 0.00 0.00 79 1016.0
20260831024004 78 0 0.0 0.0 0.00 0.00 0.00 80 1016.0
20260831023504 77 0 0.0 0.0 0.00 0.00 0.00 81 1015.9
20260831023217 78 0 0.0 0.0 0.00 0.00 0.00 81 1015.8
20260831022503 78 0 0.0 0.0 0.00 0.00 0.00 81 1015.7
20260831022004 78 0 0.0 0.0 0.00 0.00 0.00 81 1015.7
20260831021504 78 0 0.0 0.0 0.00 0.00 0.00 81 1015.7
20260831021004 78 103 0.0 1.0 0.00 0.00 0.00 81 1015.7
20260831020718 78 103 0.0 1.0 0.00 0.00 0.00 81 1015.6
20260831020004 78 0 0.0 0.0 0.00 0.00 0.00 80 1015.6
20260831015504 79 0 0.0 0.0 0.00 0.00 0.00 79 1015.7
20260831015004 79 0 0.0 0.0 0.00 0.00 0.00 79 1015.8
20260831014718 79 0 0.0 0.0 0.00 0.00 0.00 78 1015.7
20260831014004 80 0 0.0 0.0 0.00 0.00 0.00 77 1015.7
20260831013504 80 0 0.0 0.0 0.00 0.00 0.00 76 1015.6
20260831013219 80 0 0.0 0.0 0.00 0.00 0.00 76 1015.7
20260831012504 80 0 0.0 0.0 0.00 0.00 0.00 76 1015.4
20260831012004 80 0 0.0 0.0 0.00 0.00 0.00 75 1015.4
20260831011503 81 0 0.0 0.0 0.00 0.00 0.00 74 1015.5
20260831011004 81 0 0.0 0.0 0.00 0.00 0.00 73 1015.5
20260831010504 81 0 0.0 0.0 0.00 0.00 0.00 72 1015.4
20260831010004 82 0 0.0 0.0 0.00 0.00 0.00 72 1015.3
20260831005503 82 0 0.0 0.0 0.00 0.00 0.00 71 1015.3
20260831005003 82 0 0.0 0.0 0.00 0.00 0.00 71 1015.3
20260831004504 82 0 0.0 0.0 0.00 0.00 0.00 70 1015.3
20260831004003 83 0 0.0 0.0 0.00 0.00 0.00 70 1015.1
20260831003504 83 0 0.0 0.0 0.00 0.00 0.00 69 1015.2
20260831003003 84 0 0.0 0.0 0.00 0.00 0.00 68 1015.2
20260831002503 84 0 0.0 0.0 0.00 0.00 0.00 67 1015.2
20260831002004 85 0 0.0 0.0 0.00 0.00 0.00 65 1015.1
20260831001504 86 0 0.0 0.0 0.00 0.00 0.00 64 1015.1
20260831001003 87 0 0.0 0.0 0.00 0.00 0.00 62 1015.1
20260831000504 87 0 0.0 0.0 0.00 0.00 0.00 60 1015.2
20260831000004 87 0 0.0 0.0 0.00 0.00 0.00 58 1015.0
20260830235717 87 0 0.0 0.0 0.00 0.00 0.00 57 1015.0
20260830235004 88 0 0.0 0.0 0.00 0.00 0.00 57 1015.0
20260830234503 88 0 0.0 0.0 0.00 0.00 0.00 57 1015.0
20260830234003 88 0 0.0 0.0 0.00 0.00 0.00 56 1015.0
20260830233504 89 0 0.0 0.0 0.00 0.00 0.00 56 1014.9
20260830233004 89 0 0.0 0.0 0.00 0.00 0.00 55 1014.9
20260830232504 90 0 0.0 0.0 0.00 0.00 0.00 54 1015.1
20260830232218 90 0 0.0 0.0 0.00 0.00 0.00 55 1015.1
20260830231503 90 95 0.0 1.0 0.00 0.00 0.00 54 1015.1
20260830231003 90 84 0.0 2.0 0.00 0.00 0.00 54 1014.9
20260830230503 90 86 0.0 2.0 0.00 0.00 0.00 53 1014.9
20260830230004 90 117 0.0 1.0 0.00 0.00 0.00 54 1015.1
20260830225504 90 117 0.0 1.0 0.00 0.00 0.00 53 1015.0
20260830225003 90 0 0.0 0.0 0.00 0.00 0.00 54 1015.1
20260830224503 90 0 0.0 0.0 0.00 0.00 0.00 54 1015.1
20260830224217 90 0 0.0 0.0 0.00 0.00 0.00 54 1015.1
20260830223504 91 214 0.0 1.0 0.00 0.00 0.00 53 1015.1
20260830223003 91 213 0.0 1.0 0.00 0.00 0.00 52 1015.1
20260830222503 91 211 0.0 1.0 0.00 0.00 0.00 52 1015.1
20260830222003 91 162 0.0 1.0 0.00 0.00 0.00 51 1015.1
20260830221504 91 211 0.0 2.0 0.00 0.00 0.00 50 1015.1
20260830221003 91 218 0.0 3.0 0.00 0.00 0.00 50 1015.2
20260830220504 92 220 0.0 3.0 0.00 0.00 0.00 49 1015.1
20260830220004 92 191 0.0 2.0 0.00 0.00 0.00 50 1015.2
20260830215503 92 158 0.0 2.0 0.00 0.00 0.00 49 1015.1
20260830215004 92 182 0.0 1.0 0.00 0.00 0.00 50 1015.2
20260830214504 92 131 0.0 2.0 0.00 0.00 0.00 49 1015.3
20260830214003 92 158 0.0 2.0 0.00 0.00 0.00 50 1015.3
20260830213718 92 146 1.0 4.0 0.00 0.00 0.00 50 1015.2
20260830213003 92 134 1.0 6.0 0.00 0.00 0.00 48 1015.3
20260830212503 92 195 0.0 2.0 0.00 0.00 0.00 49 1015.3
20260830212003 92 183 0.0 2.0 0.00 0.00 0.00 50 1015.4
20260830211503 92 137 1.0 3.0 0.00 0.00 0.00 49 1015.4
20260830211003 92 131 1.0 3.0 0.00 0.00 0.00 48 1015.5
20260830210503 92 153 1.0 2.0 0.00 0.00 0.00 49 1015.6
20260830210004 92 177 0.0 2.0 0.00 0.00 0.00 48 1015.6
20260830205504 92 120 0.0 4.0 0.00 0.00 0.00 50 1015.6
20260830205004 92 124 0.0 4.0 0.00 0.00 0.00 50 1015.6
20260830204504 92 222 0.0 2.0 0.00 0.00 0.00 50 1015.6
20260830204004 92 205 0.0 2.0 0.00 0.00 0.00 49 1015.6
20260830203504 92 135 1.0 5.0 0.00 0.00 0.00 50 1015.7
20260830203003 92 124 1.0 5.0 0.00 0.00 0.00 50 1015.7
20260830202503 92 123 0.0 3.0 0.00 0.00 0.00 51 1015.9
20260830202004 92 119 1.0 4.0 0.00 0.00 0.00 50 1016.0
20260830201503 92 116 1.0 5.0 0.00 0.00 0.00 51 1016.0
20260830201003 92 117 1.0 5.0 0.00 0.00 0.00 51 1015.9
20260830200718 92 117 0.0 3.0 0.00 0.00 0.00 50 1016.0
20260830200004 92 121 1.0 5.0 0.00 0.00 0.00 51 1016.0
20260830195504 92 119 1.0 3.0 0.00 0.00 0.00 51 1016.1
20260830195219 92 145 1.0 4.0 0.00 0.00 0.00 49 1016.2
20260830194504 92 214 0.0 4.0 0.00 0.00 0.00 49 1016.2
20260830194003 92 179 1.0 3.0 0.00 0.00 0.00 49 1016.4
20260830193503 92 123 1.0 5.0 0.00 0.00 0.00 50 1016.5
20260830193004 91 115 2.0 7.0 0.00 0.00 0.00 51 1016.6
20260830192717 91 111 2.0 7.0 0.00 0.00 0.00 51 1016.6
20260830192003 92 117 1.0 6.0 0.00 0.00 0.00 50 1016.6
20260830191503 92 141 0.0 6.0 0.00 0.00 0.00 49 1016.7
20260830191003 92 123 0.0 5.0 0.00 0.00 0.00 52 1016.8
20260830190503 92 138 1.0 5.0 0.00 0.00 0.00 53 1016.9
20260830190004 92 140 1.0 6.0 0.00 0.00 0.00 50 1016.8
20260830185504 91 141 1.0 6.0 0.00 0.00 0.00 51 1016.9
20260830185004 92 191 1.0 4.0 0.00 0.00 0.00 50 1017.0
20260830184504 92 179 1.0 4.0 0.00 0.00 0.00 52 1017.0
20260830184004 91 133 1.0 6.0 0.00 0.00 0.00 52 1017.1
20260830183503 91 135 1.0 6.0 0.00 0.00 0.00 51 1017.2
20260830183004 91 156 1.0 5.0 0.00 0.00 0.00 53 1017.2
20260830182503 91 121 1.0 5.0 0.00 0.00 0.00 52 1017.1
20260830182003 91 113 1.0 5.0 0.00 0.00 0.00 53 1017.2
20260830181717 91 137 0.0 4.0 0.00 0.00 0.00 54 1017.3
20260830181003 90 130 2.0 8.0 0.00 0.00 0.00 55 1017.4
20260830180503 90 142 2.0 5.0 0.00 0.00 0.00 55 1017.3
20260830180004 90 176 1.0 6.0 0.00 0.00 0.00 55 1017.3
20260830175504 90 153 1.0 6.0 0.00 0.00 0.00 55 1017.3
20260830175003 90 133 1.0 4.0 0.00 0.00 0.00 56 1017.3
20260830174504 89 110 1.0 5.0 0.00 0.00 0.00 57 1017.2
20260830174003 89 120 2.0 6.0 0.00 0.00 0.00 59 1017.4
20260830173504 89 121 1.0 6.0 0.00 0.00 0.00 59 1017.5
20260830173003 89 118 0.0 3.0 0.00 0.00 0.00 61 1017.5